Regional Weather Roundup
Issued by NWS Huntsville, AL

Home | Current Version | Previous Version | Text Only | Print | Product List | Glossary On
Versions: 1 2 3 4 5 6 7 8 9 10 11 12 13 14 15 16 17 18 19 20 21 22 23 24 25 26 27 28 29 30 31 32 33 34 35 36 37 38 39 40 41 42 43 44 45 46 47 48 49 50
642
ASUS44 KHUN 241110
RWRHUN

WEATHER ROUNDUP FOR THE TENNESSEE VALLEY
NATIONAL WEATHER SERVICE HUNTSVILLE AL
500 AM CST TUE JAN 24 2017

ALZ001>004-241200-
NORTHWEST ALABAMA

CITY           SKY/WX    TMP DP  RH WIND       PRES   REMARKS
COURTLAND HCN    N/A     37 N/A N/A NW3         N/A
RUSSELLVILLE     N/A     32 N/A N/A MISG        N/A
SHOALS AIRPORT CLEAR     37  34  89 CALM      29.89R
SHOALS TVA RES   N/A     37 N/A N/A MISG        N/A
$$

ALZ005>007-016-241200-
NORTH CENTRAL ALABAMA

CITY           SKY/WX    TMP DP  RH WIND       PRES   REMARKS
CULLMAN AG STN   N/A     39 N/A N/A CALM        N/A
DECATUR AP     CLOUDY    43  37  79 NW9       29.88R
HUNTSVILLE AP  CLOUDY    44  37  76 N7        29.87R
MERIDIANVILLE  CLOUDY    41  34  75 NW8       29.86R
REDSTONE ARSN  CLOUDY    42  36  80 VRB7      29.86R
VINEMONT AP    CLOUDY    38  36  90 NW3       29.88R
$$

ALZ008>010-241200-
NORTHEAST ALABAMA

CITY           SKY/WX    TMP DP  RH WIND       PRES   REMARKS
ALBERTVILLE    CLOUDY    43  43 100 NW7       29.83R
FORT PAYNE     CLOUDY    43  34  70 N7        29.83R
SCOTTSBORO AP  CLOUDY    43  36  75 N6        29.86R
SCOTTSBORO HCN   N/A     43 N/A N/A MISG        N/A
VALLEY HEAD      N/A     43 N/A N/A MISG        N/A
$$

TNZ076-096-097-241200-
SOUTHEASTERN MIDDLE TENNESSEE

CITY           SKY/WX    TMP DP  RH WIND       PRES   REMARKS
TULLAHOMA      CLOUDY    37  34  87 NW9       29.85R WCI  31
WINCHESTER     CLOUDY    39  36  87 N8        29.83S WCI  34
$$

...SURROUNDING SITES...

CITY           SKY/WX    TMP DP  RH WIND       PRES   REMARKS
ATLANTA        MOCLDY    47  41  80 NW14      29.76R
ANNISTON       CLOUDY    46  38  73 NW6       29.84R
BIRMINGHAM     CLEAR     41  38  89 NW8       29.88R
CHATTANOOGA    CLOUDY    43  36  76 NW6       29.84R
CORINTH        FOG       34  32  93 W3        29.89R VSB 3/4
DALTON         CLOUDY    43  41  93 NW8       29.82R
GADSDEN        CLOUDY    44  38  79 W6        29.86R
GOLDEN TRNGL   CLEAR     36  30  80 CALM      29.87S
HALEYVILLE     FAIR      35  34  96 NW5       29.89R WCI  31
JACKSON TN     CLEAR     30  29  96 SW5       29.90R WCI  25
MEMPHIS        CLEAR     40  37  89 SE3       29.89S
NASHVILLE      CLOUDY    41  33  73 NW8       29.89R
OXFORD MS      FAIR      30  28  93 CALM      29.92S
ROME           CLOUDY    47  38  71 NW7       29.82R
SAVANNAH       CLEAR     30  30 100 CALM      29.89R
TUPELO         CLEAR     35  33  92 CALM      29.91R
TUSCALOOSA     CLEAR     37  37 100 CALM      29.92R
$$

...GULF COAST WEATHER...

CITY           SKY/WX    TMP DP  RH WIND       PRES   REMARKS
GULFPORT       CLEAR     46  43  89 N5        29.91S
PASCAGOULA     CLEAR     45  41  86 N3        29.92R
MOBILE         PTCLDY    43  40  89 NW3       29.92R
GULF SHORES    SUNNY     46  45  95 NW6       29.90S
PENSACOLA      CLEAR     47  43  86 NW6       29.89R
DESTIN         CLEAR     52  46  80 NW8       29.89R
PANAMA CITY    CLEAR     48  44  85 NW6       29.87R
APPALACHICOLA  CLEAR     50  46  86 NW5       29.86R
$$





USA.gov is the U.S. government's official web portal to all federal, state and local government web resources and services.